The Dalles, WA

11:07 AM PST on November 20, 2019 (GMT -0800)
Columbia Gorge Regional-The Dalles

Weather History for KDLS - September, 2019

Change the Weather History Date:

Tuesday, September 10, 2019

  Actual Average Record
Temperature  
Mean Temperature 66 °F -  
Max Temperature 78 °F 82 °F 100 °F (2011)
Min Temperature 55 °F 52 °F 41 °F (1970)
Cooling Degree Days 1    
Growing Degree Days 16 (Base 50)    
Moisture  
Dew Point 51 °F    
Average Humidity 61    
Maximum Humidity 81    
Minimum Humidity 36    
Precipitation  
Precipitation 0.00 in - - ()
Sea Level Pressure  
Sea Level Pressure 29.91 in    
Wind  
Wind Speed 7 mph (WNW)    
Max Wind Speed 16 mph    
Max Gust Speed 21 mph    
Visibility 10 miles    
Events      
Averages and records for this station are not official NWS values.
T = Trace of Precipitation, MM = Missing Value Source: NWS Daily Summary

Daily Weather History Graph

Daily Weather History Graph

Search for Another Location

Airport or City:

Astronomy

Sep. 10, 2019 Rise Set
Actual Time 6:36 AM PDT 7:25 PM PDT
Civil Twilight 6:06 AM PDT 7:55 PM PDT
Nautical Twilight 5:30 AM PDT 8:31 PM PDT
Astronomical Twilight 4:53 AM PDT 9:08 PM PDT
Moon 6:17 PM PDT (9/10) 2:54 AM PDT (9/10)
Length of Visible Light 13h 49m
Length of Day
12h 48m
Waxing Gibbous, 90% of the Moon is Illuminated
Sep 10
Waxing Gibbous
Sep 13
Full
Sep 21
Last Quarter
Sep 28
New
Oct 5
First Quarter

Hourly Weather History & Observations

Time (PDT) Temp. Dew Point Humidity Pressure Visibility Wind Dir Wind Speed Gust Speed Precip Events Conditions
12:53 AM 61.0 °F 52.0 °F 72% 29.87 in 10.0 mi WSW 3.5 mph - N/A   Overcast
1:53 AM 62.1 °F 52.0 °F 70% 29.88 in 10.0 mi WNW 9.2 mph - N/A   Overcast
2:53 AM 61.0 °F 52.0 °F 72% 29.88 in 10.0 mi WSW 5.8 mph - N/A   Overcast
3:53 AM 60.1 °F 52.0 °F 75% 29.89 in 10.0 mi Calm Calm - N/A   Overcast
4:53 AM 59.0 °F 53.1 °F 81% 29.89 in 10.0 mi West 3.5 mph - N/A   Overcast
5:53 AM 57.9 °F 51.1 °F 78% 29.89 in 10.0 mi Calm Calm - N/A   Scattered Clouds
6:53 AM 55.9 °F 50.0 °F 80% 29.90 in 10.0 mi Calm Calm - N/A   Overcast
7:53 AM 60.1 °F 54.0 °F 80% 29.91 in 10.0 mi Calm Calm - N/A   Scattered Clouds
8:53 AM 64.0 °F 54.0 °F 70% 29.92 in 10.0 mi NW 6.9 mph - N/A   Overcast
9:53 AM 66.0 °F 55.0 °F 68% 29.92 in 10.0 mi NW 8.1 mph - N/A   Overcast
10:53 AM 71.1 °F 54.0 °F 55% 29.91 in 10.0 mi NW 13.8 mph - N/A   Overcast
11:53 AM 73.0 °F 51.1 °F 46% 29.90 in 10.0 mi NW 13.8 mph - N/A   Scattered Clouds
12:53 PM 70.0 °F 50.0 °F 49% 29.90 in 10.0 mi West 16.1 mph - N/A   Clear
1:53 PM 72.0 °F 48.0 °F 43% 29.89 in 10.0 mi West 6.9 mph - N/A   Clear
3:53 PM 77.0 °F 48.0 °F 36% 29.86 in 10.0 mi West 16.1 mph - N/A   Clear
4:53 PM 75.9 °F 48.0 °F 37% 29.87 in 10.0 mi WNW 12.7 mph - N/A   Clear
5:53 PM 73.9 °F 48.9 °F 41% 29.88 in 10.0 mi WNW 13.8 mph 20.7 mph N/A   Clear
6:53 PM 70.0 °F 48.9 °F 47% 29.90 in 10.0 mi West 10.4 mph - N/A   Clear
7:53 PM 66.9 °F 48.9 °F 52% 29.92 in 10.0 mi West 8.1 mph - N/A   Clear
8:53 PM 66.0 °F 50.0 °F 56% 29.94 in 10.0 mi West 10.4 mph - N/A   Clear
9:53 PM 63.0 °F 50.0 °F 63% 29.96 in 10.0 mi NW 9.2 mph - N/A   Clear
10:53 PM 63.0 °F 52.0 °F 67% 29.98 in 10.0 mi West 6.9 mph - N/A   Clear
11:53 PM 62.1 °F 53.1 °F 72% 29.99 in 10.0 mi NW 10.4 mph - N/A   Clear